Location: South Tamworth Observatory
(43.8246°N, 71.3026°W)
Time: 05:56:34
(UTC-04:00)

Amateur Radio Satellites - All Passes

Search period start: 26 June 2016 05:26
Search period end: 27 June 2016 05:26
Location: South Tamworth Observatory, 43.8246°N, 71.3026°W

Satellite Date Start Highest point End Downlink Frequencies (MHz)
Time Altitude Azimuth
STARS 26 Jun 05:32:33 05:34:38 13° 270° (W) 05:36:43 437.465
CUBESAT XI-V 26 Jun 05:37:32 05:42:10 58° 260° (W) 05:46:50 437.345
AO-7 26 Jun 05:43:53 05:51:55 53° 297° (WNW) 05:59:55 29.400- 29.500
STRAND 1 26 Jun 05:49:01 05:52:28 18° 60° (ENE) 05:55:55 437.568
GONETS M04 26 Jun 05:49:07 05:57:50 70° 79° (E) 06:06:33
Cosmos 2499 26 Jun 05:49:22 05:57:57 50° 74° (ENE) 06:06:04 435.465 / 435.565
CUTE-I 26 Jun 05:55:57 05:59:18 17° 90° (E) 06:02:39 437.470
HORYU 2 26 Jun 06:04:36 06:09:04 64° 287° (WNW) 06:13:30 437.375
AO-85 26 Jun 06:22:19 06:26:41 39° 47° (NE) 06:30:40 145.980
NOAA 18 26 Jun 06:30:18 06:35:24 36° 97° (E) 06:40:29 137.9125
NOAA 15 26 Jun 06:32:34 06:37:39 47° 100° (E) 06:42:41 137.62
BRITE-PL 26 Jun 06:52:18 06:56:29 73° 103° (ESE) 07:00:38 437.365/2234.400
Cubesat XI-IV 26 Jun 06:59:09 07:04:30 60° 101° (ESE) 07:09:48 437.490
AIST 2 26 Jun 07:04:07 07:07:41 27° 315° (NW) 07:11:16 435.215
DANDE 26 Jun 07:06:17 07:12:08 21° 82° (E) 07:17:46 436.750
CUSAT 1 26 Jun 07:08:58 07:16:04 38° 92° (E) 07:22:19 437.405
LilacSat-2 26 Jun 07:11:00 07:14:54 90° 285° (WNW) 07:18:47 437.200
DOVE 4 26 Jun 07:17:33 07:21:15 28° 96° (E) 07:25:04 437.250
STRAND 1 26 Jun 07:26:01 07:31:07 65° 258° (WSW) 07:36:16 437.568
CUTE-I 26 Jun 07:34:29 07:39:51 69° 287° (WNW) 07:45:11 437.470
AO-7 26 Jun 07:39:02 07:42:48 14° 319° (NW) 07:46:34 29.400- 29.500
GOMX 1 26 Jun 07:40:27 07:44:38 76° 284° (WNW) 07:48:54 467.674
Cosmos 2499 26 Jun 07:42:54 07:50:51 39° 275° (W) 07:58:26 435.465 / 435.565
GONETS M04 26 Jun 07:47:03 07:53:51 27° 279° (W) 08:00:41
AO-85 26 Jun 08:03:16 08:06:54 25° 248° (WSW) 08:10:18 145.980
HO-68 26 Jun 08:10:54 08:17:27 36° 96° (E) 08:23:56 435.675
NOAA 18 26 Jun 08:11:03 08:16:00 34° 295° (WNW) 08:20:56 137.9125
PHONESAT 2.4 26 Jun 08:12:34 08:14:52 19° 158° (SSE) 08:17:11 2401.200-2431.200
NOAA 15 26 Jun 08:12:57 08:17:08 25° 297° (WNW) 08:21:17 137.62
PRISM 26 Jun 08:19:40 08:23:50 78° 75° (ENE) 08:28:00 437.425
AAUSAT CUBESAT 2 26 Jun 08:21:32 08:23:45 14° 90° (E) 08:25:56 437.432
BRITE-PL 26 Jun 08:33:19 08:34:23 11° 300° (WNW) 08:35:28 437.365/2234.400
CINEMA 3 26 Jun 08:33:19 08:37:43 54° 100° (E) 08:42:19 145.822/145.860
CANX-2 26 Jun 08:38:37 08:42:53 61° 100° (E) 08:47:06 2200.000
Cubesat XI-IV 26 Jun 08:40:11 08:44:07 21° 299° (WNW) 08:48:02 437.490
DANDE 26 Jun 08:45:41 08:54:08 90° 309° (NW) 09:02:07 436.750
ISS 26 Jun 08:47:13 08:48:32 12° 131° (SE) 08:49:51 145.825
CUBEBUG 2 26 Jun 08:49:40 08:53:32 26° 95° (E) 08:57:27 437.445
CUSAT 1 26 Jun 08:50:33 08:58:04 47° 286° (WNW) 09:04:34 437.405
COMPASS 1 26 Jun 08:51:29 08:55:24 37° 97° (E) 08:59:17 437.405
DOVE 4 26 Jun 08:55:18 08:58:55 28° 291° (WNW) 09:02:40 437.250
CUTE 1.7 + AOD 2 26 Jun 08:59:09 09:03:29 90° 129° (SE) 09:07:45 437.475
ANTELSAT 26 Jun 08:59:53 09:02:21 15° 62° (ENE) 09:04:51 437.575/2403.000
M-CUBED/EXP-1 PRIME 26 Jun 09:02:32 09:05:18 19° 100° (E) 09:08:10 437.505
SEEDS 26 Jun 09:08:15 09:12:32 82° 100° (E) 09:16:45 437.485
CUTE-I 26 Jun 09:17:40 09:18:55 11° 306° (NW) 09:20:10 437.470
ZACube-1 26 Jun 09:28:06 09:32:06 30° 96° (E) 09:36:08 437.345
UWE-3 26 Jun 09:42:30 09:47:02 64° 101° (E) 09:51:38 435.000/436.395/437.385
Oscar 11 26 Jun 09:43:20 09:47:32 44° 99° (E) 09:51:42 145.826/435.025
FUNcube-1 26 Jun 09:46:59 09:51:20 44° 98° (E) 09:55:42 145.935
PHONESAT 2.4 26 Jun 09:48:10 09:51:06 41° 174° (S) 09:54:02 2401.200-2431.200
TIGRISAT 26 Jun 09:50:23 09:54:27 44° 71° (ENE) 09:58:38 435.000
UNISAT 6 26 Jun 09:54:27 09:58:38 52° 72° (ENE) 10:02:54 437.425
AAUSAT CUBESAT 2 26 Jun 09:55:28 09:59:33 52° 287° (WNW) 10:03:35 437.432
HO-68 26 Jun 09:58:27 10:05:18 48° 295° (WNW) 10:12:07 435.675
AUBIESAT-1 26 Jun 09:59:10 10:03:00 67° 107° (ESE) 10:07:06 437.475
PCSat 26 Jun 10:06:17 10:09:45 17° 37° (NE) 10:13:12 145.827
CINEMA 3 26 Jun 10:11:36 10:14:30 17° 296° (WNW) 10:17:28 145.822/145.860
CANX-2 26 Jun 10:15:58 10:18:14 14° 298° (WNW) 10:20:30 2200.000
ISS 26 Jun 10:21:14 10:24:31 89° 122° (ESE) 10:27:47 145.825
CUBEBUG 2 26 Jun 10:26:03 10:30:10 34° 291° (WNW) 10:34:21 437.445
COMPASS 1 26 Jun 10:27:35 10:30:44 21° 294° (WNW) 10:33:51 437.405
DELFI C3 26 Jun 10:29:45 10:33:45 67° 101° (E) 10:37:42 145.870
DANDE 26 Jun 10:31:32 10:37:51 23° 297° (WNW) 10:43:51 436.750
ANTELSAT 26 Jun 10:34:21 10:38:35 58° 260° (W) 10:42:55 437.575/2403.000
M-CUBED/EXP-1 PRIME 26 Jun 10:36:25 10:39:54 37° 294° (WNW) 10:43:38 437.505
BUGSAT 1 26 Jun 10:38:49 10:40:06 11° 61° (ENE) 10:41:23 437.445
NANOSAT C BR1 26 Jun 10:42:31 10:46:07 29° 68° (ENE) 10:49:43 145.865
QB50P1 26 Jun 10:43:49 10:47:30 31° 69° (ENE) 10:51:13 145.935-145.965
SEEDS 26 Jun 10:46:34 10:47:34 11° 300° (WNW) 10:48:35 437.485
POPSAT HIP 1 26 Jun 10:46:43 10:50:26 32° 69° (ENE) 10:54:13 437.405
RS-15 26 Jun 10:48:39 10:57:11 25° 100° (E) 11:05:59 29.354- 29.394
QB50P2 26 Jun 10:58:00 11:02:01 46° 72° (ENE) 11:06:04 145.880/145.840
POLYITAN 1 26 Jun 11:00:37 11:04:38 47° 72° (ENE) 11:08:41 437.675
DUCHIFAT 1 26 Jun 11:03:58 11:07:56 45° 72° (ENE) 11:11:56 145.980
ZACube-1 26 Jun 11:04:25 11:08:18 29° 292° (WNW) 11:12:13 437.345
HUMSAT D 26 Jun 11:04:34 11:08:54 77° 101° (E) 11:13:13 437.325/437.525
YUBILEINY 26 Jun 11:06:25 11:08:03 11° 70° (ENE) 11:09:42 435.215
Cosmos 2491 26 Jun 11:10:33 11:18:29 37° 69° (ENE) 11:26:21 435.465 / 435.565
BEESAT 3 26 Jun 11:14:31 11:18:04 30° 47° (NE) 11:21:35 437.485
Oscar 11 26 Jun 11:20:17 11:23:20 19° 296° (WNW) 11:26:23 145.826/435.025
UWE-3 26 Jun 11:20:22 11:23:00 15° 297° (WNW) 11:25:40 435.000/436.395/437.385
CUBEBUG 1 26 Jun 11:23:34 11:25:57 14° 91° (E) 11:28:19 437.445
FUNcube-1 26 Jun 11:23:57 11:27:17 21° 295° (WNW) 11:30:37 145.935
JAS-2 26 Jun 11:24:14 11:30:49 33° 64° (ENE) 11:36:57 435.910
PHONESAT 2.4 26 Jun 11:24:36 11:27:28 36° 191° (S) 11:30:20 2401.200-2431.200
VELOX 1 26 Jun 11:24:43 11:26:57 14° 90° (E) 11:29:11 145.980
TIGRISAT 26 Jun 11:28:33 11:31:24 17° 269° (W) 11:34:18 435.000
O/OREOS (USA 219) 26 Jun 11:31:48 11:33:46 13° 48° (NE) 11:35:44 437.305
UNISAT 6 26 Jun 11:33:15 11:35:43 15° 270° (W) 11:38:12 437.425
AUBIESAT-1 26 Jun 11:35:31 11:37:06 12° 302° (WNW) 11:38:42 437.475
BEESAT 2 26 Jun 11:46:59 11:50:43 36° 49° (NE) 11:54:24 435.950
PCSat 26 Jun 11:48:36 11:54:04 78° 58° (ENE) 11:59:29 145.827
ESTCUBE 1 26 Jun 11:48:41 11:52:56 40° 98° (E) 11:57:09 437.505/2401.250
HO-68 26 Jun 11:50:04 11:51:18 10° 316° (NW) 11:52:32 435.675
50 SAT 26 Jun 11:51:46 11:54:58 27° 96° (E) 11:58:06 437.505
ISS 26 Jun 11:58:29 12:01:17 25° 347° (NNW) 12:04:04 145.825
AISAT 26 Jun 12:03:47 12:07:52 37° 98° (E) 12:11:56 437.250
DELFI C3 26 Jun 12:06:42 12:08:03 12° 298° (WNW) 12:09:25 145.870
BUGSAT 1 26 Jun 12:10:56 12:14:55 69° 257° (WSW) 12:18:56 437.445
NANOSAT C BR1 26 Jun 12:18:20 12:21:49 26° 265° (W) 12:25:21 145.865
UKube-1 26 Jun 12:18:22 12:22:13 31° 97° (E) 12:26:03 .
QB50P1 26 Jun 12:19:55 12:23:18 24° 265° (W) 12:26:43 145.935-145.965
POPSAT HIP 1 26 Jun 12:22:59 12:26:17 22° 266° (W) 12:29:37 437.405
SPROUT 26 Jun 12:25:05 12:28:43 26° 95° (E) 12:32:20 437.525
DX 1 26 Jun 12:33:02 12:37:19 56° 101° (E) 12:41:34 434.975-435.025
QB50P2 26 Jun 12:35:28 12:38:05 16° 269° (W) 12:40:43 145.880/145.840
POLYITAN 1 26 Jun 12:38:10 12:40:43 16° 269° (W) 12:43:16 437.675
DUCHIFAT 1 26 Jun 12:41:16 12:43:53 16° 268° (W) 12:46:30 145.980
HUMSAT D 26 Jun 12:42:18 12:43:55 12° 299° (WNW) 12:45:32 437.325/437.525
BEESAT 3 26 Jun 12:52:18 12:55:41 28° 245° (WSW) 12:59:04 437.485
YUBILEINY 26 Jun 12:54:21 13:02:50 61° 91° (E) 13:11:24 435.215
Gurwin Techsat 1B 26 Jun 12:56:19 13:00:40 27° 64° (ENE) 13:05:02 435.225
RS-15 26 Jun 12:56:28 13:07:55 90° 303° (WNW) 13:20:05 29.354- 29.394
CUBEBUG 1 26 Jun 12:58:21 13:02:34 54° 287° (WNW) 13:06:47 437.445
Oscar 19 26 Jun 12:59:07 13:04:10 59° 72° (ENE) 13:09:13 437.125/150
VELOX 1 26 Jun 12:59:28 13:03:48 59° 287° (WNW) 13:08:07 145.980
PHONESAT 2.4 26 Jun 13:01:56 13:03:36 14° 207° (SSW) 13:05:15 2401.200-2431.200
AO-7 26 Jun 13:04:04 13:08:26 15° 43° (NE) 13:12:49 29.400- 29.500
Cosmos 2491 26 Jun 13:07:16 13:15:36 52° 271° (W) 13:23:55 435.465 / 435.565
JAS-2 26 Jun 13:07:59 13:15:33 56° 260° (W) 13:22:32 435.910
O/OREOS (USA 219) 26 Jun 13:09:20 13:13:50 87° 249° (WSW) 13:18:19 437.305
ITAMSAT 1 26 Jun 13:18:17 13:21:27 16° 59° (ENE) 13:24:37 435.822/435.867
BEESAT 2 26 Jun 13:25:11 13:28:22 23° 247° (WSW) 13:31:32 435.950
50 SAT 26 Jun 13:25:38 13:28:31 21° 293° (WNW) 13:31:22 437.505
ESTCUBE 1 26 Jun 13:26:02 13:29:30 22° 295° (WNW) 13:32:57 437.505/2401.250
PCSat 26 Jun 13:33:39 13:36:46 16° 256° (WSW) 13:39:51 145.827
ISS 26 Jun 13:35:52 13:38:29 21° 7° (N) 13:41:04 145.825
AISAT 26 Jun 13:40:43 13:44:08 23° 295° (WNW) 13:47:33 437.250
Cosmos 2504 26 Jun 13:44:00 13:51:20 40° 85° (E) 13:59:07 435.465 / 435.565
AIST 2 26 Jun 13:45:12 13:49:05 36° 48° (NE) 13:52:57 435.215
TISAT 1 26 Jun 13:54:28 13:58:39 65° 101° (ESE) 14:02:50 437.305
UKube-1 26 Jun 13:54:36 13:58:09 25° 294° (WNW) 14:01:41 .
SPROUT 26 Jun 14:00:56 14:04:39 29° 292° (WNW) 14:08:19 437.525
DX 1 26 Jun 14:10:29 14:13:04 16° 298° (WNW) 14:15:38 434.975-435.025
Gurwin Techsat 1B 26 Jun 14:35:20 14:40:23 44° 261° (W) 14:45:28 435.225
Oscar 19 26 Jun 14:40:24 14:43:52 18° 269° (W) 14:47:21 437.125/150
SWISSCUBE 26 Jun 14:45:19 14:49:57 45° 99° (E) 14:54:32 437.505
AO-7 26 Jun 14:51:24 14:59:30 59° 64° (ENE) 15:07:39 29.400- 29.500
YUBILEINY 26 Jun 14:52:36 15:00:10 32° 293° (WNW) 15:07:50 435.215
ITAMSAT 1 26 Jun 14:55:05 15:00:18 75° 257° (WSW) 15:05:33 435.822/435.867
ITUPSAT 1 26 Jun 15:10:10 15:15:00 71° 102° (ESE) 15:19:47 437.325
SO-50 26 Jun 15:10:25 15:11:30 11° 106° (ESE) 15:12:34 436.795
BEESAT 26 Jun 15:10:48 15:15:38 74° 104° (ESE) 15:20:24 436.000
RS-15 26 Jun 15:11:34 15:22:10 37° 331° (NNW) 15:33:16 29.354- 29.394
ISS 26 Jun 15:12:13 15:15:26 51° 26° (NNE) 15:18:38 145.825
AIST 2 26 Jun 15:24:00 15:27:24 25° 246° (WSW) 15:30:48 435.215
HORYU 2 26 Jun 15:29:20 15:31:58 16° 61° (ENE) 15:34:36 437.375
TISAT 1 26 Jun 15:31:49 15:33:48 13° 298° (WNW) 15:35:45 437.305
Cosmos 2504 26 Jun 15:36:47 15:44:32 47° 287° (WNW) 15:52:51 435.465 / 435.565
MOZHAYETS 4 26 Jun 16:11:45 16:16:05 37° 97° (E) 16:20:22
NOAA 15 26 Jun 16:17:44 16:20:10 13° 57° (ENE) 16:22:37 137.62
NOAA 18 26 Jun 16:21:22 16:23:37 13° 54° (NE) 16:25:50 137.9125
SWISSCUBE 26 Jun 16:23:47 16:27:27 22° 297° (WNW) 16:31:05 437.505
BRITE-PL 26 Jun 16:28:42 16:30:53 13° 61° (ENE) 16:33:00 437.365/2234.400
KKS-1 26 Jun 16:38:56 16:43:24 76° 104° (ESE) 16:47:50 437.445
Cubesat XI-IV 26 Jun 16:45:07 16:48:27 17° 59° (ENE) 16:51:47 437.490
AO-7 26 Jun 16:45:18 16:52:37 34° 264° (W) 17:00:03 29.400- 29.500
SO-50 26 Jun 16:46:18 16:51:12 82° 122° (ESE) 16:56:06 436.795
ISS 26 Jun 16:49:01 16:51:42 23° 224° (SW) 16:54:22 145.825
ITUPSAT 1 26 Jun 16:49:32 16:52:15 15° 300° (WNW) 16:54:59 437.325
BEESAT 26 Jun 16:50:13 16:52:48 15° 300° (WNW) 16:55:23 436.000
GONETS M04 26 Jun 17:00:25 17:04:46 15° 74° (ENE) 17:09:06
HORYU 2 26 Jun 17:03:42 17:08:02 59° 259° (WSW) 17:12:27 437.375
AIST 1 26 Jun 17:10:46 17:14:55 47° 94° (E) 17:19:04
GOMX 1 26 Jun 17:14:07 17:16:39 15° 63° (ENE) 17:19:06 467.674
STARS 26 Jun 17:17:39 17:22:04 82° 285° (WNW) 17:26:29 437.465
CUTE-I 26 Jun 17:18:35 17:23:15 32° 65° (ENE) 17:27:56 437.470
RS-15 26 Jun 17:29:33 17:39:25 28° 6° (N) 17:49:29 29.354- 29.394
CUBESAT XI-V 26 Jun 17:32:58 17:37:06 31° 96° (E) 17:41:10 437.345
CUSAT 1 26 Jun 17:45:37 17:47:37 13° 60° (ENE) 17:49:24 437.405
MOZHAYETS 4 26 Jun 17:49:17 17:53:03 25° 294° (WNW) 17:56:48
NOAA 15 26 Jun 17:53:51 17:59:09 86° 75° (ENE) 18:04:29 137.62
LilacSat-2 26 Jun 17:54:05 17:57:45 51° 74° (ENE) 18:01:27 437.200
NOAA 18 26 Jun 17:57:54 18:03:21 77° 73° (ENE) 18:08:51 137.9125
BRITE-PL 26 Jun 18:03:40 18:08:49 84° 255° (WSW) 18:13:35 437.365/2234.400
KKS-1 26 Jun 18:17:27 18:19:21 13° 300° (WNW) 18:21:15 437.445
Cubesat XI-IV 26 Jun 18:22:33 18:27:53 76° 257° (WSW) 18:33:17 437.490
DOVE 4 26 Jun 18:24:35 18:28:27 32° 70° (ENE) 18:32:13 437.250
Cosmos 2499 26 Jun 18:27:09 18:34:33 38° 85° (E) 18:42:21 435.465 / 435.565
SO-50 26 Jun 18:28:43 18:32:17 20° 323° (NW) 18:35:49 436.795
HO-68 26 Jun 18:41:20 18:47:27 32° 60° (ENE) 18:53:36 435.675
GOMX 1 26 Jun 18:49:42 18:54:21 62° 259° (W) 18:58:44 467.674
AIST 1 26 Jun 18:50:05 18:52:48 16° 291° (WNW) 18:55:31
GONETS M04 26 Jun 18:51:20 19:00:00 76° 95° (E) 19:08:41
CUTE-I 26 Jun 18:58:17 19:03:12 37° 263° (W) 19:08:09 437.470
CUBESAT XI-V 26 Jun 19:10:26 19:14:24 29° 293° (WNW) 19:18:19 437.345
AAUSAT CUBESAT 2 26 Jun 19:13:55 19:15:40 12° 61° (ENE) 19:17:25 437.432
CUSAT 1 26 Jun 19:26:32 19:30:10 34° 269° (W) 19:33:05 437.405
DANDE 26 Jun 19:27:09 19:32:39 75° 78° (ENE) 19:36:39 436.750
LilacSat-2 26 Jun 19:30:57 19:32:23 12° 270° (W) 19:33:49 437.200
CANX-2 26 Jun 19:32:20 19:36:28 50° 73° (ENE) 19:40:39 2200.000
STRAND 1 26 Jun 19:35:16 19:40:06 39° 98° (E) 19:44:53 437.568
CINEMA 3 26 Jun 19:36:32 19:40:35 54° 73° (ENE) 19:44:39 145.822/145.860
NOAA 15 26 Jun 19:37:25 19:39:36 12° 272° (W) 19:41:47 137.62
NOAA 18 26 Jun 19:41:35 19:44:37 15° 270° (W) 19:47:40 137.9125
COMPASS 1 26 Jun 19:43:28 19:47:09 30° 69° (ENE) 19:50:52 437.405
RS-15 26 Jun 19:44:15 19:56:01 48° 39° (NE) 20:07:48 29.354- 29.394
CUBEBUG 2 26 Jun 19:49:35 19:52:55 24° 66° (ENE) 19:56:20 437.445
M-CUBED/EXP-1 PRIME 26 Jun 19:50:56 19:53:39 25° 64° (ENE) 19:56:22 437.505
CUTE 1.7 + AOD 2 26 Jun 19:52:39 19:56:54 74° 76° (ENE) 20:01:13 437.475
SEEDS 26 Jun 20:00:49 20:05:02 66° 74° (ENE) 20:09:16 437.485
DOVE 4 26 Jun 20:02:45 20:06:13 23° 265° (W) 20:09:36 437.250
Cosmos 2499 26 Jun 20:19:23 20:27:24 51° 286° (WNW) 20:35:56 435.465 / 435.565
ZACube-1 26 Jun 20:25:30 20:29:00 26° 67° (ENE) 20:32:36 437.345
HO-68 26 Jun 20:27:49 20:34:48 56° 259° (WSW) 20:41:52 435.675
Oscar 11 26 Jun 20:39:10 20:43:13 40° 71° (ENE) 20:47:19 145.826/435.025
AO-85 26 Jun 20:40:37 20:42:10 11° 106° (ESE) 20:43:43 145.980
UWE-3 26 Jun 20:40:48 20:44:53 57° 74° (ENE) 20:49:05 435.000/436.395/437.385
FUNcube-1 26 Jun 20:43:52 20:47:45 38° 70° (ENE) 20:51:44 145.935
AAUSAT CUBESAT 2 26 Jun 20:46:25 20:50:36 69° 259° (W) 20:54:48 437.432
AUBIESAT-1 26 Jun 20:47:17 20:50:35 72° 252° (WSW) 20:53:54 437.475
GONETS M04 26 Jun 20:50:53 20:57:46 25° 296° (WNW) 21:04:41
CANX-2 26 Jun 21:10:05 21:12:38 15° 269° (W) 21:15:11 2200.000
DANDE 26 Jun 21:13:24 21:14:04 10° 285° (WNW) 21:14:43 436.750
STRAND 1 26 Jun 21:14:45 21:19:07 28° 295° (WNW) 21:23:27 437.568
CINEMA 3 26 Jun 21:16:11 21:18:07 13° 270° (W) 21:20:03 145.822/145.860
DELFI C3 26 Jun 21:16:39 21:20:31 45° 72° (ENE) 21:24:23 145.870
COMPASS 1 26 Jun 21:19:14 21:22:43 25° 266° (W) 21:26:12 437.405
CUBEBUG 2 26 Jun 21:25:44 21:29:25 31° 264° (W) 21:33:12 437.445
M-CUBED/EXP-1 PRIME 26 Jun 21:25:57 21:28:15 18° 260° (W) 21:30:34 437.505
CUTE 1.7 + AOD 2 26 Jun 21:32:31 21:33:16 10° 272° (W) 21:34:02 437.475
PRISM 26 Jun 21:35:06 21:39:12 77° 285° (WNW) 21:43:15 437.425
SEEDS 26 Jun 21:39:38 21:41:10 12° 271° (W) 21:42:43 437.485
UNISAT 6 26 Jun 21:47:06 21:48:15 11° 88° (E) 21:49:25 437.425
HUMSAT D 26 Jun 21:56:49 22:00:55 61° 74° (ENE) 22:05:06 437.325/437.525
RS-15 26 Jun 21:57:07 22:09:16 67° 244° (WSW) 22:21:17 29.354- 29.394
ZACube-1 26 Jun 22:01:36 22:05:14 28° 265° (W) 22:08:57 437.345
Oscar 11 26 Jun 22:16:22 22:19:31 19° 268° (W) 22:22:42 145.826/435.025
AO-85 26 Jun 22:16:28 22:21:53 76° 122° (ESE) 22:27:08 145.980
UWE-3 26 Jun 22:19:50 22:21:46 13° 271° (W) 22:23:43 435.000/436.395/437.385
Cosmos 2499 26 Jun 22:20:57 22:23:06 11° 311° (NW) 22:25:15 435.465 / 435.565
CUBEBUG 1 26 Jun 22:21:04 22:23:40 16° 63° (ENE) 22:26:16 437.445
FUNcube-1 26 Jun 22:21:08 22:24:10 19° 268° (W) 22:27:16 145.935
VELOX 1 26 Jun 22:23:25 22:26:06 16° 62° (ENE) 22:28:45 145.980
ANTELSAT 26 Jun 22:24:39 22:28:36 27° 95° (E) 22:32:33 437.575/2403.000
50 SAT 26 Jun 22:31:39 22:34:03 17° 65° (ENE) 22:36:27 437.505
ESTCUBE 1 26 Jun 22:49:15 22:53:32 43° 71° (ENE) 22:57:51 437.505/2401.250
DELFI C3 26 Jun 22:53:14 22:55:37 15° 269° (W) 22:58:00 145.870
AISAT 26 Jun 23:02:17 23:06:23 39° 70° (ENE) 23:10:29 437.250
YUBILEINY 26 Jun 23:02:57 23:10:41 32° 67° (ENE) 23:18:23 435.215
UKube-1 26 Jun 23:14:06 23:17:56 32° 68° (ENE) 23:21:46 .
TIGRISAT 26 Jun 23:16:26 23:21:05 85° 105° (ESE) 23:25:47 435.000
SPROUT 26 Jun 23:20:06 23:23:33 25° 67° (ENE) 23:27:00 437.525
UNISAT 6 26 Jun 23:20:52 23:25:31 82° 283° (WNW) 23:30:12 437.425
DX 1 26 Jun 23:29:33 23:33:49 58° 73° (ENE) 23:38:06 434.975-435.025
HUMSAT D 26 Jun 23:35:15 23:36:58 12° 271° (W) 23:38:42 437.325/437.525
Cosmos 2504 26 Jun 23:35:17 23:40:51 18° 57° (ENE) 23:46:20 435.465 / 435.565
SO-50 26 Jun 23:37:05 23:40:26 19° 37° (NE) 23:43:42 436.795
BUGSAT 1 26 Jun 23:52:28 23:54:50 15° 92° (E) 23:57:11 437.445
CUBEBUG 1 26 Jun 23:55:14 23:59:31 56° 259° (W) 00:03:49 437.445
VELOX 1 26 Jun 23:57:46 00:02:07 57° 259° (W) 00:06:29 145.980
AO-85 26 Jun 23:58:41 00:02:54 23° 320° (NW) 00:06:58 145.980
NANOSAT C BR1 27 Jun 00:00:29 00:04:33 43° 99° (E) 00:08:36 145.865
ANTELSAT 27 Jun 00:01:09 00:05:19 34° 291° (WNW) 00:09:31 437.575/2403.000
QB50P1 27 Jun 00:02:14 00:06:21 47° 100° (E) 00:10:28 145.935-145.965
50 SAT 27 Jun 00:03:59 00:07:26 37° 262° (W) 00:10:57 437.505
POPSAT HIP 1 27 Jun 00:05:13 00:09:22 50° 100° (E) 00:13:31 437.405
RS-15 27 Jun 00:12:58 00:19:14 16° 266° (W) 00:25:30 29.354- 29.394
Cosmos 2491 27 Jun 00:13:39 00:21:34 40° 86° (E) 00:29:28 435.465 / 435.565
QB50P2 27 Jun 00:16:56 00:21:13 74° 103° (ESE) 00:25:29 145.880/145.840
JAS-2 27 Jun 00:18:28 00:22:09 17° 88° (E) 00:25:37 435.910
POLYITAN 1 27 Jun 00:19:33 00:23:50 76° 102° (ESE) 00:28:07 437.675
DUCHIFAT 1 27 Jun 00:21:58 00:26:13 71° 103° (ESE) 00:30:26 145.980
ESTCUBE 1 27 Jun 00:27:13 00:30:32 20° 267° (W) 00:33:53 437.505/2401.250
AISAT 27 Jun 00:39:41 00:43:00 21° 266° (W) 00:46:19 437.250
ITUPSAT 1 27 Jun 00:43:36 00:45:40 13° 58° (ENE) 00:47:46 437.325
BEESAT 27 Jun 00:43:50 00:45:59 13° 58° (ENE) 00:48:08 436.000
TISAT 1 27 Jun 00:47:10 00:51:14 56° 73° (ENE) 00:55:19 437.305
UKube-1 27 Jun 00:50:27 00:54:00 24° 265° (W) 00:57:33 .
TIGRISAT 27 Jun 00:55:18 00:57:07 12° 300° (WNW) 00:58:56 435.000
SPROUT 27 Jun 00:55:36 00:59:22 31° 264° (W) 01:03:10 437.525
YUBILEINY 27 Jun 00:59:23 01:08:01 61° 269° (W) 01:16:38 435.215
UNISAT 6 27 Jun 01:00:36 01:01:28 10° 302° (WNW) 01:02:20 437.425
DX 1 27 Jun 01:08:07 01:10:22 14° 269° (W) 01:12:38 434.975-435.025
Oscar 19 27 Jun 01:10:16 01:13:46 18° 91° (E) 01:17:15 437.125/150
SO-50 27 Jun 01:16:49 01:21:31 79° 238° (WSW) 01:26:02 436.795
BUGSAT 1 27 Jun 01:26:32 01:30:28 48° 288° (WNW) 01:34:25 437.445
Cosmos 2504 27 Jun 01:27:01 01:35:59 75° 80° (E) 01:44:35 435.465 / 435.565
NANOSAT C BR1 27 Jun 01:37:01 01:39:58 19° 296° (WNW) 01:42:56 145.865
QB50P1 27 Jun 01:38:59 01:41:46 17° 296° (WNW) 01:44:33 145.935-145.965
POPSAT HIP 1 27 Jun 01:42:06 01:44:46 16° 297° (WNW) 01:47:26 437.405
SWISSCUBE 27 Jun 01:52:50 01:57:32 61° 72° (ENE) 02:02:18 437.505
QB50P2 27 Jun 01:54:49 01:56:26 12° 299° (WNW) 01:58:03 145.880/145.840
POLYITAN 1 27 Jun 01:57:30 01:59:03 12° 300° (WNW) 02:00:36 437.675
DUCHIFAT 1 27 Jun 01:59:37 02:01:21 12° 299° (WNW) 02:03:04 145.980
JAS-2 27 Jun 02:02:11 02:07:55 62° 289° (WNW) 02:13:08 435.910
Cosmos 2491 27 Jun 02:09:50 02:18:13 48° 286° (WNW) 02:26:38 435.465 / 435.565
ITUPSAT 1 27 Jun 02:18:00 02:22:48 86° 257° (WSW) 02:27:40 437.325
BEESAT 27 Jun 02:18:17 02:23:04 84° 256° (WSW) 02:27:54 436.000
TISAT 1 27 Jun 02:25:15 02:27:14 13° 269° (W) 02:29:14 437.305
PCSat 27 Jun 02:31:22 02:36:38 55° 115° (ESE) 02:41:56 145.827
STARS 27 Jun 02:42:22 02:43:56 12° 59° (ENE) 02:45:29 437.465
BEESAT 3 27 Jun 02:43:42 02:47:11 31° 116° (ESE) 02:50:43 437.485
Oscar 19 27 Jun 02:48:26 02:53:28 58° 289° (WNW) 02:58:28 437.125/150
Gurwin Techsat 1B 27 Jun 02:49:44 02:55:04 66° 102° (ESE) 03:00:21 435.225
AO-7 27 Jun 02:53:33 02:58:08 15° 87° (E) 03:02:41 29.400- 29.500
YUBILEINY 27 Jun 03:00:48 03:02:49 11° 290° (WNW) 03:04:50 435.215
ITAMSAT 1 27 Jun 03:06:48 03:11:35 35° 97° (E) 03:16:19 435.822/435.867
MOZHAYETS 4 27 Jun 03:14:42 03:19:01 41° 70° (ENE) 03:23:23
BEESAT 2 27 Jun 03:17:30 03:21:12 40° 118° (ESE) 03:24:58 435.950
AIST 1 27 Jun 03:17:35 03:19:51 14° 68° (ENE) 03:22:06
Cosmos 2504 27 Jun 03:21:37 03:28:26 26° 280° (W) 03:35:06 435.465 / 435.565
O/OREOS (USA 219) 27 Jun 03:22:41 03:27:11 85° 108° (ESE) 03:31:41 437.305
SWISSCUBE 27 Jun 03:32:55 03:35:44 16° 269° (W) 03:38:36 437.505
KKS-1 27 Jun 03:38:00 03:42:25 82° 75° (ENE) 03:46:51 437.445
STARS 27 Jun 04:15:18 04:19:39 79° 256° (WSW) 04:24:03 437.465
PCSat 27 Jun 04:15:46 04:20:21 27° 315° (NW) 04:24:57 145.827
Cosmos 2499 27 Jun 04:17:30 04:22:33 16° 55° (NE) 04:27:27 435.465 / 435.565
BEESAT 3 27 Jun 04:21:30 04:24:53 27° 314° (NW) 04:28:18 437.485
Gurwin Techsat 1B 27 Jun 04:30:53 04:34:29 19° 300° (WNW) 04:38:05 435.225
CUBESAT XI-V 27 Jun 04:37:19 04:41:36 36° 69° (ENE) 04:45:54 437.345
AO-7 27 Jun 04:43:47 04:52:12 77° 106° (ESE) 05:00:35 29.400- 29.500
ITAMSAT 1 27 Jun 04:46:21 04:50:59 32° 294° (WNW) 04:55:35 435.822/435.867
MOZHAYETS 4 27 Jun 04:52:47 04:56:20 22° 267° (W) 04:59:56
HORYU 2 27 Jun 04:53:39 04:57:17 23° 95° (E) 05:00:52 437.375
AIST 1 27 Jun 04:53:39 04:57:49 54° 265° (W) 05:01:57
BEESAT 2 27 Jun 04:55:59 04:59:11 23° 316° (NW) 05:02:26 435.950
GONETS M04 27 Jun 05:00:03 05:08:10 41° 71° (ENE) 05:16:15
O/OREOS (USA 219) 27 Jun 05:05:10 05:07:14 13° 312° (NW) 05:09:19 437.305
AO-85 27 Jun 05:08:12 05:11:10 16° 34° (NNE) 05:13:59 145.980
